When you browse on this site, cookies collect data to enhance your experience and personalize the content and advertising you see.
Visit our Privacy Policy to learn more. By continuing to use the site, you agree to this use of cookies and data.
  • In Portugal
  • List of Countries
  • For 7 days
  • Water Temperature
  • Weather Map
  • Weather Widgets
  • user-avatar
    Login

    Hourly Weather Brisbane

    Today, 1 June, Monday

    Time Temperature Precipitation Wind Pressure Humidity
    00:00 +18°C° 0.1 mm 1 mps 763 mmHg 85%
    01:00 +18°C° 0.1 mm 1 mps 763 mmHg 86%
    02:00 +16°C° 0 mm 1 mps 762 mmHg 86%
    03:00 +16°C° 0 mm 1 mps 762 mmHg 87%
    04:00 +16°C° 0 mm 1 mps 762 mmHg 88%
    05:00 +16°C° 0 mm 1 mps 762 mmHg 88%
    06:00 +16°C° 0 mm 1 mps 762 mmHg 88%
    07:00 +16°C° 0 mm 1 mps 762 mmHg 88%
    08:00 +19°C° 0 mm 1 mps 762 mmHg 79%
    09:00 +21°C° 0 mm 1 mps 762 mmHg 70%
    10:00 +23°C° 0 mm 2 mps 762 mmHg 61%
    11:00 +24°C° 0 mm 2 mps 761 mmHg 55%
    12:00 +25°C° 0 mm 3 mps 760 mmHg 50%
    13:00 +26°C° 0 mm 3 mps 759 mmHg 45%
    14:00 +26°C° 0.1 mm 3 mps 759 mmHg 47%
    15:00 +26°C° 0.1 mm 3 mps 759 mmHg 50%
    16:00 +25°C° 0 mm 3 mps 759 mmHg 53%
    17:00 +24°C° 0 mm 3 mps 759 mmHg 59%
    18:00 +21°C° 0 mm 3 mps 759 mmHg 64%
    19:00 +20°C° 0 mm 3 mps 759 mmHg 69%
    20:00 +19°C° 0.1 mm 3 mps 759 mmHg 72%
    21:00 +19°C° 0.1 mm 3 mps 759 mmHg 75%
    22:00 +18°C° 0 mm 3 mps 760 mmHg 77%
    23:00 +18°C° 0 mm 3 mps 759 mmHg 73%

    Tomorrow, 2 June, Tuesday

    Time Temperature Precipitation Wind Pressure Humidity
    00:00 +18°C° 0 mm 3 mps 759 mmHg 69%
    01:00 +18°C° 0 mm 4 mps 759 mmHg 66%
    02:00 +15°C° 0 mm 4 mps 759 mmHg 66%
    03:00 +14°C° 0 mm 4 mps 760 mmHg 65%
    04:00 +13°C° 0 mm 4 mps 760 mmHg 65%
    05:00 +13°C° 0 mm 4 mps 761 mmHg 64%
    06:00 +12°C° 0 mm 5 mps 761 mmHg 62%
    07:00 +12°C° 0 mm 5 mps 762 mmHg 60%
    08:00 +13°C° 0 mm 5 mps 762 mmHg 51%
    09:00 +14°C° 0 mm 5 mps 762 mmHg 42%
    10:00 +16°C° 0 mm 5 mps 762 mmHg 33%
    11:00 +17°C° 0 mm 5 mps 762 mmHg 31%
    12:00 +19°C° 0 mm 6 mps 761 mmHg 29%
    13:00 +20°C° 0 mm 6 mps 760 mmHg 26%
    14:00 +19°C° 0 mm 6 mps 761 mmHg 28%
    15:00 +19°C° 0 mm 6 mps 761 mmHg 30%
    16:00 +17°C° 0 mm 6 mps 761 mmHg 32%
    17:00 +16°C° 0 mm 5 mps 761 mmHg 36%
    18:00 +14°C° 0 mm 5 mps 762 mmHg 41%
    19:00 +13°C° 0 mm 5 mps 763 mmHg 45%
    20:00 +12°C° 0 mm 5 mps 763 mmHg 48%
    21:00 +12°C° 0 mm 5 mps 763 mmHg 51%
    22:00 +11°C° 0 mm 4 mps 764 mmHg 54%
    23:00 +11°C° 0 mm 4 mps 764 mmHg 56%

    Day after tomorrow, 3 June, Wednesday

    Time Temperature Precipitation Wind Pressure Humidity
    00:00 +10°C° 0 mm 3 mps 764 mmHg 59%
    01:00 +10°C° 0 mm 3 mps 764 mmHg 61%
    02:00 +9°C° 0 mm 3 mps 764 mmHg 63%
    03:00 +9°C° 0 mm 3 mps 764 mmHg 65%
    04:00 +8°C° 0 mm 3 mps 764 mmHg 68%
    05:00 +8°C° 0 mm 3 mps 764 mmHg 68%
    06:00 +8°C° 0 mm 3 mps 764 mmHg 69%
    07:00 +8°C° 0 mm 2 mps 764 mmHg 70%
    08:00 +10°C° 0 mm 2 mps 765 mmHg 62%
    09:00 +13°C° 0 mm 2 mps 765 mmHg 54%
    10:00 +16°C° 0 mm 2 mps 765 mmHg 46%
    11:00 +18°C° 0 mm 2 mps 764 mmHg 42%
    12:00 +20°C° 0 mm 1 mps 764 mmHg 38%
    13:00 +22°C° 0 mm 1 mps 763 mmHg 33%
    14:00 +22°C° 0 mm 1 mps 763 mmHg 35%
    15:00 +20°C° 0 mm 2 mps 763 mmHg 37%
    16:00 +20°C° 0 mm 2 mps 764 mmHg 39%
    17:00 +18°C° 0 mm 2 mps 764 mmHg 46%
    18:00 +16°C° 0 mm 2 mps 765 mmHg 54%
    19:00 +15°C° 0 mm 2 mps 766 mmHg 62%
    20:00 +14°C° 0 mm 2 mps 766 mmHg 63%
    21:00 +13°C° 0 mm 3 mps 767 mmHg 64%
    22:00 +13°C° 0 mm 3 mps 767 mmHg 65%
    23:00 +12°C° 0 mm 3 mps 767 mmHg 68%

    4 June, Thursday

    Time Temperature Precipitation Wind Pressure Humidity
    00:00 +12°C° 0 mm 3 mps 767 mmHg 70%
    01:00 +12°C° 0 mm 3 mps 767 mmHg 72%
    02:00 +11°C° 0 mm 3 mps 767 mmHg 74%
    03:00 +12°C° 0 mm 2 mps 767 mmHg 76%
    04:00 +12°C° 0 mm 2 mps 767 mmHg 78%
    05:00 +12°C° 0 mm 2 mps 767 mmHg 77%
    06:00 +12°C° 0 mm 2 mps 768 mmHg 76%
    07:00 +10°C° 0 mm 2 mps 768 mmHg 75%
    08:00 +13°C° 0 mm 3 mps 768 mmHg 69%
    09:00 +16°C° 0 mm 3 mps 769 mmHg 62%
    10:00 +18°C° 0 mm 4 mps 769 mmHg 56%
    11:00 +19°C° 0 mm 4 mps 768 mmHg 55%
    12:00 +20°C° 0 mm 4 mps 768 mmHg 53%
    13:00 +20°C° 0 mm 5 mps 768 mmHg 51%
    14:00 +20°C° 0 mm 4 mps 768 mmHg 52%
    15:00 +20°C° 0 mm 4 mps 768 mmHg 54%
    16:00 +19°C° 0 mm 4 mps 768 mmHg 55%
    17:00 +18°C° 0 mm 4 mps 768 mmHg 60%
    18:00 +17°C° 0 mm 4 mps 769 mmHg 65%
    19:00 +16°C° 0 mm 3 mps 769 mmHg 70%
    20:00 +14°C° 0 mm 3 mps 769 mmHg 72%
    21:00 +14°C° 0 mm 3 mps 769 mmHg 74%
    22:00 +13°C° 0 mm 3 mps 770 mmHg 77%
    23:00 +13°C° 0 mm 3 mps 769 mmHg 77%

    5 June, Friday

    Time Temperature Precipitation Wind Pressure Humidity
    00:00 +13°C° 0 mm 3 mps 769 mmHg 77%
    01:00 +13°C° 0 mm 3 mps 769 mmHg 77%
    02:00 +13°C° 0 mm 3 mps 769 mmHg 79%
    03:00 +12°C° 0 mm 3 mps 768 mmHg 81%
    04:00 +12°C° 0 mm 3 mps 768 mmHg 83%
    05:00 +12°C° 0 mm 2 mps 768 mmHg 83%
    06:00 +12°C° 0 mm 2 mps 769 mmHg 83%
    07:00 +12°C° 0 mm 2 mps 769 mmHg 83%
    08:00 +13°C° 0 mm 3 mps 769 mmHg 75%
    09:00 +16°C° 0 mm 3 mps 769 mmHg 67%
    10:00 +18°C° 0 mm 3 mps 769 mmHg 59%
    11:00 +19°C° 0.1 mm 3 mps 768 mmHg 55%
    12:00 +20°C° 0.1 mm 3 mps 768 mmHg 52%
    13:00 +21°C° 0.1 mm 3 mps 767 mmHg 48%
    14:00 +21°C° 0 mm 3 mps 767 mmHg 50%
    15:00 +21°C° 0 mm 3 mps 767 mmHg 52%
    16:00 +20°C° 0 mm 3 mps 766 mmHg 55%
    17:00 +19°C° 0 mm 3 mps 767 mmHg 61%
    18:00 +18°C° 0 mm 3 mps 767 mmHg 67%
    19:00 +16°C° 0 mm 3 mps 768 mmHg 73%
    20:00 +16°C° 0.1 mm 3 mps 768 mmHg 75%
    21:00 +14°C° 0.1 mm 3 mps 768 mmHg 78%
    22:00 +15°C° 0.1 mm 2 mps 768 mmHg 80%
    23:00 +14°C° 0.1 mm 2 mps 767 mmHg 80%

    6 June, Saturday

    Time Temperature Precipitation Wind Pressure Humidity
    00:00 +14°C° 0.1 mm 2 mps 767 mmHg 81%
    01:00 +14°C° 0.1 mm 2 mps 767 mmHg 82%
    02:00 +13°C° 0.1 mm 2 mps 767 mmHg 82%
    03:00 +13°C° 0.1 mm 2 mps 767 mmHg 83%
    04:00 +13°C° 0.1 mm 2 mps 766 mmHg 83%
    05:00 +13°C° 0 mm 2 mps 767 mmHg 83%
    06:00 +13°C° 0 mm 2 mps 767 mmHg 84%
    07:00 +13°C° 0 mm 2 mps 767 mmHg 84%
    08:00 +15°C° 0 mm 2 mps 767 mmHg 75%
    09:00 +17°C° 0 mm 2 mps 767 mmHg 67%
    10:00 +19°C° 0 mm 2 mps 767 mmHg 58%
    11:00 +20°C° 0 mm 2 mps 766 mmHg 53%
    12:00 +22°C° 0 mm 3 mps 765 mmHg 48%
    13:00 +24°C° 0 mm 3 mps 765 mmHg 43%
    14:00 +22°C° 0 mm 3 mps 765 mmHg 48%
    15:00 +21°C° 0 mm 3 mps 764 mmHg 53%
    16:00 +21°C° 0 mm 3 mps 764 mmHg 58%
    17:00 +19°C° 0 mm 3 mps 765 mmHg 64%
    18:00 +18°C° 0 mm 2 mps 765 mmHg 70%
    19:00 +17°C° 0 mm 2 mps 765 mmHg 77%
    20:00 +16°C° 0 mm 2 mps 765 mmHg 78%
    21:00 +16°C° 0 mm 1 mps 765 mmHg 80%
    22:00 +15°C° 0 mm 1 mps 765 mmHg 81%
    23:00 +15°C° 0 mm 1 mps 765 mmHg 82%
    Show more